This is the latest recevied weather packets stored in our database for station/object KC5TIL-3. If no packets are shown the sender has not sent any weather packets the latest 10 day(s).
| Time | Temp. | Humidity | Pressure | Rain* | Wind** | Luminosity | Snow |
|---|---|---|---|---|---|---|---|
| 1787569591 | 29.44° C | 19% | 1010.8 hPa | 0 mm | 4.02 m/s, 204° | - | - |
| 1787569293 | 29.44° C | 19% | 1010.8 hPa | 0 mm | 3.13 m/s, 203° | - | - |
| 1787568991 | 29.44° C | 19% | 1010.8 hPa | 0 mm | 2.68 m/s, 152° | - | - |
| 1787568693 | 29.44° C | 19% | 1010.8 hPa | 0 mm | 3.58 m/s, 211° | - | - |
| 1787568395 | 29.44° C | 19% | 1010.8 hPa | 0 mm | 3.13 m/s, 199° | - | - |
| 1787568094 | 29.44° C | 18% | 1010.8 hPa | 0 mm | 3.13 m/s, 178° | - | - |
| 1787567795 | 29.44° C | 18% | 1010.8 hPa | 0 mm | 3.13 m/s, 171° | - | - |
| 1787567497 | 29.44° C | 18% | 1010.8 hPa | 0 mm | 3.13 m/s, 190° | - | - |
| 1787567196 | 29.44° C | 18% | 1010.8 hPa | 0 mm | 3.13 m/s, 220° | - | - |
| 1787566898 | 29.44° C | 18% | 1010.8 hPa | 0 mm | 3.58 m/s, 156° | - | - |
| 1787566595 | 29.44° C | 18% | 1009.8 hPa | 0 mm | 3.13 m/s, 163° | - | - |
| 1787566294 | 29.44° C | 18% | 1009.8 hPa | 0 mm | 2.68 m/s, 191° | - | - |
| 1787565996 | 29.44° C | 18% | 1009.8 hPa | 0 mm | 3.58 m/s, 183° | - | - |
| 1787565698 | 30° C | 18% | 1009.8 hPa | 0 mm | 4.92 m/s, 221° | - | - |
| 1787565396 | 30° C | 18% | 1009.8 hPa | 0 mm | 3.58 m/s, 150° | - | - |
| 1787565098 | 30° C | 18% | 1009.8 hPa | 0 mm | 3.58 m/s, 195° | - | - |
| 1787564800 | 30.56° C | 18% | 1009.8 hPa | 0 mm | 3.58 m/s, 184° | - | - |
| 1787564195 | 30.56° C | 18% | 1009.8 hPa | 0 mm | 3.13 m/s, 171° | - | - |
| 1787563897 | 30.56° C | 15% | 1009.8 hPa | 0 mm | 3.58 m/s, 216° | - | - |
| 1787563596 | 30.56° C | 15% | 1009.8 hPa | 0 mm | 3.13 m/s, 228° | - | - |
| 1787563293 | 30.56° C | 15% | 1009.8 hPa | 0 mm | 4.02 m/s, 192° | - | - |
| 1787562995 | 30.56° C | 15% | 1009.8 hPa | 0 mm | 3.58 m/s, 230° | - | - |
| 1787562689 | 30.56° C | 15% | 1009.8 hPa | 0 mm | 3.58 m/s, 152° | - | - |
| 1787562386 | 30.56° C | 15% | 1009.8 hPa | 0 mm | 3.58 m/s, 202° | - | - |
| 1787562088 | 30.56° C | 15% | 1009.8 hPa | 0 mm | 4.02 m/s, 250° | - | - |
* Rain latest hour (hover to see other rain measurements)
** Current wind speed in m/s (hover to see current wind gust speed)